| time (UTC) | temp F | wind direction | speed MPH | gust MPH | rain 1hr in | rain 24hr in | rain mn in | humidity % | barometer mb |
| 20260831110107 | 72 | 0 | 0.0 | 0.0 | 0.00 | 0.00 | 0.00 | 100 | 1019.3 |
| 20260831104600 | 72 | 0 | 0.0 | 0.0 | 0.00 | 0.00 | 0.00 | 100 | 1019.0 |
| 20260831103104 | 72 | 0 | 0.0 | 0.0 | 0.00 | 0.00 | 0.00 | 100 | 1018.8 |
| 20260831101621 | 72 | 0 | 0.0 | 1.0 | 0.00 | 0.00 | 0.00 | 100 | 1018.7 |
| 20260831100107 | 72 | 0 | 0.0 | 0.0 | 0.00 | 0.00 | 0.00 | 100 | 1018.6 |
| 20260831094609 | 73 | 0 | 0.0 | 0.0 | 0.00 | 0.00 | 0.00 | 100 | 1018.7 |
| 20260831093101 | 73 | 0 | 0.0 | 1.0 | 0.00 | 0.00 | 0.00 | 100 | 1018.7 |
| 20260831091559 | 72 | 0 | 0.0 | 0.0 | 0.00 | 0.00 | 0.00 | 100 | 1018.5 |
| 20260831090118 | 72 | 0 | 0.0 | 0.0 | 0.00 | 0.00 | 0.00 | 100 | 1018.5 |
| 20260831084558 | 72 | 0 | 0.0 | 0.0 | 0.00 | 0.00 | 0.00 | 99 | 1018.6 |
| 20260831083247 | 72 | 0 | 0.0 | 0.0 | 0.00 | 0.00 | 0.00 | 99 | 1018.4 |
| 20260831081605 | 73 | 0 | 0.0 | 0.0 | 0.00 | 0.00 | 0.00 | 99 | 1018.4 |
| 20260831080100 | 73 | 0 | 0.0 | 0.0 | 0.00 | 0.00 | 0.00 | 99 | 1018.6 |
| 20260831074557 | 72 | 0 | 0.0 | 0.0 | 0.00 | 0.00 | 0.00 | 99 | 1018.7 |
| 20260831073109 | 72 | 0 | 0.0 | 0.0 | 0.00 | 0.00 | 0.00 | 99 | 1018.9 |
| 20260831071608 | 72 | 0 | 0.0 | 0.0 | 0.00 | 0.00 | 0.00 | 99 | 1019.0 |
| 20260831070134 | 73 | 0 | 0.0 | 0.0 | 0.00 | 0.00 | 0.00 | 99 | 1019.1 |
| 20260831064604 | 73 | 0 | 0.0 | 0.0 | 0.00 | 0.00 | 0.00 | 99 | 1019.0 |
| 20260831063107 | 73 | 0 | 0.0 | 0.0 | 0.00 | 0.00 | 0.00 | 99 | 1019.1 |
| 20260831061610 | 73 | 0 | 0.0 | 0.0 | 0.00 | 0.00 | 0.00 | 99 | 1019.1 |
| 20260831060111 | 73 | 0 | 0.0 | 0.0 | 0.00 | 0.00 | 0.00 | 99 | 1019.1 |
| 20260831054554 | 73 | 0 | 0.0 | 0.0 | 0.00 | 0.00 | 0.00 | 99 | 1019.2 |
| 20260831053105 | 74 | 0 | 0.0 | 0.0 | 0.00 | 0.00 | 0.00 | 99 | 1019.1 |
| 20260831051618 | 74 | 0 | 0.0 | 0.0 | 0.00 | 0.00 | 0.00 | 98 | 1019.2 |
| 20260831050106 | 74 | 0 | 0.0 | 0.0 | 0.00 | 0.00 | 0.00 | 98 | 1019.2 |
| 20260831044604 | 74 | 0 | 0.0 | 1.0 | 0.00 | 0.00 | 0.00 | 98 | 1019.2 |
| 20260831043108 | 74 | 0 | 0.0 | 0.0 | 0.00 | 0.00 | 0.00 | 98 | 1019.2 |
| 20260831041559 | 74 | 0 | 0.0 | 0.0 | 0.00 | 0.00 | 0.00 | 98 | 1019.3 |
| 20260831040106 | 74 | 0 | 0.0 | 0.0 | 0.00 | 0.00 | 0.00 | 97 | 1019.2 |
| 20260831034556 | 75 | 0 | 0.0 | 0.0 | 0.00 | 0.00 | 0.00 | 97 | 1019.4 |
| 20260831033103 | 75 | 0 | 0.0 | 2.0 | 0.00 | 0.00 | 0.00 | 97 | 1019.7 |
| 20260831031558 | 75 | 0 | 0.0 | 1.0 | 0.00 | 0.00 | 0.00 | 97 | 1019.8 |
| 20260831024616 | 75 | 141 | 0.0 | 4.0 | 0.00 | 0.00 | 0.00 | 96 | 1019.9 |
| 20260831023055 | 75 | 0 | 0.0 | 0.0 | 0.00 | 0.00 | 0.00 | 96 | 1020.0 |
| 20260831021604 | 75 | 108 | 1.0 | 2.0 | 0.00 | 0.00 | 0.00 | 96 | 1020.1 |
| 20260831020103 | 75 | 0 | 0.0 | 0.0 | 0.00 | 0.00 | 0.00 | 96 | 1020.2 |
| 20260831014602 | 75 | 0 | 0.0 | 0.0 | 0.00 | 0.00 | 0.00 | 96 | 1020.2 |
| 20260831013056 | 75 | 0 | 0.0 | 1.0 | 0.00 | 0.00 | 0.00 | 96 | 1020.3 |
| 20260831011604 | 75 | 0 | 0.0 | 1.0 | 0.00 | 0.00 | 0.00 | 96 | 1020.3 |
| 20260831010130 | 75 | 0 | 0.0 | 1.0 | 0.00 | 0.00 | 0.00 | 96 | 1020.3 |
| 20260831004613 | 75 | 0 | 0.0 | 1.0 | 0.00 | 0.00 | 0.00 | 96 | 1020.1 |
| 20260831003110 | 75 | 0 | 0.0 | 2.0 | 0.00 | 0.00 | 0.00 | 95 | 1020.0 |
| 20260831001609 | 75 | 0 | 0.0 | 1.0 | 0.00 | 0.00 | 0.00 | 95 | 1020.0 |
| 20260831000057 | 75 | 0 | 0.0 | 1.0 | 0.00 | 0.00 | 0.00 | 94 | 1020.1 |
| 20260830234605 | 76 | 0 | 0.0 | 1.0 | 0.00 | 0.00 | 0.00 | 94 | 1020.1 |
| 20260830233104 | 76 | 0 | 0.0 | 1.0 | 0.00 | 0.00 | 0.00 | 93 | 1020.0 |
| 20260830231600 | 77 | 0 | 0.0 | 2.0 | 0.00 | 0.00 | 0.00 | 92 | 1019.8 |
| 20260830230109 | 77 | 148 | 0.0 | 2.0 | 0.00 | 0.00 | 0.00 | 91 | 1020.1 |
| 20260830224609 | 77 | 139 | 1.0 | 2.0 | 0.00 | 0.00 | 0.00 | 91 | 1020.1 |
| 20260830223104 | 78 | 127 | 1.0 | 4.0 | 0.00 | 0.00 | 0.00 | 90 | 1020.1 |
| 20260830221600 | 78 | 153 | 1.0 | 3.0 | 0.00 | 0.00 | 0.00 | 90 | 1020.2 |
| 20260830220126 | 79 | 139 | 0.0 | 3.0 | 0.00 | 0.00 | 0.00 | 89 | 1020.1 |
| 20260830214605 | 80 | 0 | 1.0 | 5.0 | 0.00 | 0.00 | 0.00 | 88 | 1019.9 |
| 20260830213103 | 81 | 110 | 1.0 | 5.0 | 0.00 | 0.00 | 0.00 | 85 | 1019.8 |
| 20260830211604 | 81 | 143 | 0.0 | 4.0 | 0.00 | 0.00 | 0.00 | 86 | 1019.8 |
| 20260830210111 | 82 | 142 | 0.0 | 5.0 | 0.00 | 0.00 | 0.00 | 85 | 1019.7 |
| 20260830204600 | 82 | 117 | 1.0 | 5.0 | 0.00 | 0.00 | 0.00 | 84 | 1019.7 |
| 20260830203115 | 82 | 179 | 1.0 | 6.0 | 0.00 | 0.00 | 0.00 | 84 | 1020.0 |
| 20260830201601 | 82 | 139 | 1.0 | 5.0 | 0.00 | 0.00 | 0.00 | 84 | 1020.1 |
| 20260830200105 | 82 | 145 | 0.0 | 5.0 | 0.00 | 0.00 | 0.00 | 85 | 1020.3 |
| 20260830194559 | 82 | 98 | 1.0 | 5.0 | 0.00 | 0.00 | 0.00 | 84 | 1020.5 |
| 20260830193106 | 82 | 193 | 1.0 | 8.0 | 0.00 | 0.00 | 0.00 | 84 | 1020.6 |
| 20260830191601 | 81 | 120 | 1.0 | 3.0 | 0.00 | 0.00 | 0.00 | 85 | 1020.7 |
| 20260830184558 | 81 | 250 | 0.0 | 4.0 | 0.00 | 0.00 | 0.00 | 85 | 1021.1 |
| 20260830183111 | 81 | 113 | 2.0 | 5.0 | 0.00 | 0.00 | 0.00 | 85 | 1021.2 |
| 20260830181623 | 81 | 123 | 1.0 | 4.0 | 0.00 | 0.00 | 0.00 | 86 | 1021.5 |
| 20260830180111 | 81 | 119 | 1.0 | 5.0 | 0.00 | 0.00 | 0.00 | 85 | 1021.5 |
| 20260830174556 | 81 | 138 | 1.0 | 3.0 | 0.00 | 0.00 | 0.00 | 86 | 1021.7 |
| 20260830173138 | 81 | 120 | 1.0 | 5.0 | 0.00 | 0.00 | 0.00 | 86 | 1021.9 |
| 20260830171606 | 81 | 160 | 1.0 | 4.0 | 0.00 | 0.00 | 0.00 | 84 | 1021.9 |
| 20260830170059 | 81 | 128 | 1.0 | 4.0 | 0.00 | 0.00 | 0.00 | 84 | 1022.1 |
| 20260830164608 | 81 | 0 | 0.0 | 2.0 | 0.00 | 0.00 | 0.00 | 82 | 1022.1 |
| 20260830163104 | 82 | 112 | 0.0 | 2.0 | 0.00 | 0.00 | 0.00 | 83 | 1022.4 |
| 20260830161634 | 81 | 105 | 1.0 | 4.0 | 0.00 | 0.00 | 0.00 | 80 | 1022.4 |
| 20260830160103 | 82 | 105 | 0.0 | 6.0 | 0.00 | 0.00 | 0.00 | 84 | 1022.6 |
| 20260830154601 | 80 | 84 | 1.0 | 3.0 | 0.00 | 0.00 | 0.00 | 83 | 1022.6 |
| 20260830153058 | 80 | 118 | 0.0 | 4.0 | 0.00 | 0.00 | 0.00 | 85 | 1022.8 |
| 20260830151603 | 79 | 98 | 2.0 | 5.0 | 0.00 | 0.00 | 0.00 | 86 | 1022.8 |
| 20260830150104 | 78 | 0 | 1.0 | 5.0 | 0.00 | 0.00 | 0.00 | 86 | 1022.9 |
| 20260830144605 | 79 | 0 | 0.0 | 6.0 | 0.00 | 0.00 | 0.00 | 89 | 1022.9 |
| 20260830143103 | 78 | 72 | 0.0 | 4.0 | 0.00 | 0.00 | 0.00 | 89 | 1022.9 |
| 20260830141602 | 76 | 0 | 0.0 | 3.0 | 0.00 | 0.00 | 0.00 | 92 | 1022.8 |
| 20260830140110 | 75 | 105 | 0.0 | 5.0 | 0.00 | 0.00 | 0.00 | 95 | 1022.8 |
| 20260830134600 | 74 | 85 | 0.0 | 2.0 | 0.00 | 0.00 | 0.00 | 100 | 1022.9 |
| 20260830133104 | 72 | 95 | 0.0 | 2.0 | 0.00 | 0.00 | 0.00 | 100 | 1023.1 |
| 20260830131616 | 71 | 0 | 0.0 | 3.0 | 0.00 | 0.00 | 0.00 | 100 | 1023.2 |
| 20260830130110 | 69 | 0 | 0.0 | 1.0 | 0.00 | 0.00 | 0.00 | 100 | 1023.5 |
| 20260830124606 | 68 | 0 | 0.0 | 0.0 | 0.00 | 0.00 | 0.00 | 100 | 1023.4 |
| 20260830123105 | 67 | 0 | 0.0 | 0.0 | 0.00 | 0.00 | 0.00 | 100 | 1023.5 |
| 20260830121607 | 65 | 0 | 0.0 | 0.0 | 0.00 | 0.00 | 0.00 | 100 | 1023.6 |
| 20260830120106 | 65 | 0 | 0.0 | 0.0 | 0.00 | 0.00 | 0.00 | 100 | 1023.5 |
| 20260830114552 | 64 | 0 | 0.0 | 0.0 | 0.00 | 0.00 | 0.00 | 100 | 1023.7 |
| 20260830113100 | 63 | 0 | 0.0 | 0.0 | 0.00 | 0.00 | 0.00 | 100 | 1023.6 |
| 20260830111559 | 63 | 0 | 0.0 | 0.0 | 0.00 | 0.00 | 0.00 | 100 | 1023.6 |